Regional Weather Roundup
Issued by NWS

Home | Current Version | Previous Version | Graphics & Text | Print | Product List | Glossary On
Versions: 1 2 3 4 5 6 7 8 9 10 11 12 13 14 15 16 17 18 19 20 21 22 23 24 25 26 27 28 29 30 31 32 33 34 35 36 37 38 39 40 41 42 43 44 45 46 47 48 49 50
254
ASUS43 KIND 191659
RWRIN

WEATHER ROUNDUP FOR INDIANA
NATIONAL WEATHER SERVICE INDIANAPOLIS IN
1200 PM EST MON FEB 19 2018

NOTE: "FAIR" INDICATES FEW OR NO CLOUDS BELOW 12,000 FEET WITH NO
SIGNIFICANT WEATHER AND/OR OBSTRUCTIONS TO VISIBILITY.

* - STATION DOES NOT REPORT WEATHER SUCH AS PRECIPITATION OR FOG.

+ - STATION NOT QUALITY CONTROLLED BY THE NATIONAL WEATHER SERVICE.
    USE DATA WITH CAUTION...ESPECIALLY DEWPOINT AND RELATIVE
    HUMIDITY OBSERVATIONS.

INZ001>003-010>013-019-020-191800-
NORTHWEST INDIANA

CITY           SKY/WX    TMP DP  RH WIND       PRES   REMARKS
GARY /AIRPORT/ LGT RAIN  46  46 100 SE8       29.84F FOG
LA PORTE +     LGT RAIN  45  45 100 S8        29.87F VSB 1/4
MICHIGAN CITY+ LGT RAIN  45  45 100 S7        29.86F
MONTICELLO +   LGT RAIN  50  49  95 SE9       29.89F

$$

LMZ046-743>745-191800-
SOUTHERN LAKE MICHIGAN

STATION/POSITION TIME  TEMP    WIND        PRES    WAVE
                       AIR SEA DIR/SP/G            HT
                 (UTC) (F)     (DEG/KT/KT) (MB)    (FT)
BURNS HARBOR     1640   48     170/ 10/ 15 1011.2F
MICHIGAN CITY    1630   46     140/ 12/ 14   N/A

$$

INZ004-005-014>016-021>024-191800-
NORTH CENTRAL INDIANA

CITY           SKY/WX    TMP DP  RH WIND       PRES   REMARKS
GOSHEN         RAIN      49  48  97 S14       29.90F FOG
SOUTH BEND     LGT RAIN  42  42 100 SE7       29.89F VSB 3/4
WARSAW +       HVY RAIN  48  48 100 S7        29.93F

$$

INZ006>009-017-018-025>027-191800-
NORTHEAST INDIANA

CITY           SKY/WX    TMP DP  RH WIND       PRES   REMARKS
AUBURN +       RAIN      45  45 100 CALM      29.97F
FORT WAYNE     NOT AVBL
KENDALLVILLE + RAIN      46  46 100 S9        29.94F

$$

INZ028-029-035-036-043>045-051>053-191800-
WEST CENTRAL INDIANA

CITY           SKY/WX    TMP DP  RH WIND       PRES   REMARKS
GREENCASTLE +  LGT RAIN  59  55  88 SW12G21   30.00R
LAFAYETTE      LGT RAIN  57  57 100 S14G24    29.91S FOG
TERRE HAUTE    CLOUDY    60  58  92 S15G25    29.98R

$$

INZ030>032-037>040-046>048-054>057-064-065-191800-
CENTRAL INDIANA

CITY           SKY/WX    TMP DP  RH WIND       PRES   REMARKS
COLUMBUS       CLOUDY    63  57  82 S14       30.04R
FRANKFORT +    RAIN      60  58  93 SW16G25   29.96S
GREENWOOD *+   CLOUDY    57 -48   1 SW8       30.02R
INDIANAPOLIS   LGT RAIN  61  58  90 SW22G30   30.00R
-EAGLE CREEK   LGT RAIN  61  57  87 S13G22    29.99R FOG
KOKOMO +       LGT RAIN  51  51 100 S14       29.96S FOG
MARION +       LGT RAIN  50  50 100 CALM      29.99R
MT COMFORT *+  CLOUDY    57  57 100 S12       30.01R
SHELBYVILLE    LGT RAIN  62  57  83 S14       30.02R
ZIONSVILLE +   RAIN      58  57  94 SW21G30   29.98R

$$

INZ033-034-041-042-049-050-058-059-191800-
EAST CENTRAL INDIANA

CITY           SKY/WX    TMP DP  RH WIND       PRES   REMARKS
MUNCIE         LGT RAIN  60  56  86 SW16      29.99R
RICHMOND +     CLOUDY    57  57 100 S10       30.05R

$$

INZ060-061-067>069-081>083-085>088-191800-
SOUTHWEST INDIANA

CITY           SKY/WX    TMP DP  RH WIND       PRES   REMARKS
EVANSVILLE     CLOUDY    64  59  83 SW17G25   30.06S
HUNTINGBURG +  CLOUDY    64  59  83 SW17      30.07R

$$

INZ062-063-066-070>080-084-089>092-191800-
SOUTH CENTRAL AND SOUTHEAST INDIANA

CITY           SKY/WX    TMP DP  RH WIND       PRES   REMARKS
BLOOMINGTON    LGT RAIN  62  58  86 SW16G31   30.04R
FRENCH LICK *+ CLOUDY    63  55  77 SW16G26   30.06S
SEYMOUR +      DRIZZLE   66  57  72 SW15      30.05R

$$





USA.gov is the U.S. government's official web portal to all federal, state and local government web resources and services.